Погода в Таёжном

Россия / Республика Бурятия     51°12′11″N   105°42′59″E
темп.,
°C
ветер,
м/с
пор.,
м/с
влажн.,
%
обл.,
%
осадки,
мм/ч
давл.,
гПа
погр.,
м
9 мая, вс
вс923:00−1сз22945 0.0 101630
02:00−1сз2293100 0.0 101526
05:00+1сз118589 0.0 101422
08:00+6в01689 0.0 1012374
11:00+11зсз1344100 0.0 10091456
14:00+12ссз3535100 0.0 10071651
17:00+12ссв2237100 0.0 1005990
20:00+4ссз359294 0.3 1009139
10 мая, пн
пн1023:00+3сз3491100 0.3 1009160
02:00+2ссз2597100 0.6 1010225
05:00+2ссз3787100 0.1 1011618
08:00+2ссз3885100 0.2 1012691
11:00+5ссз465899 0.1 10121168
14:00+5ссз5856100 0.1 10131153
17:00+4ссз5106481 0.0 10131159
20:00+1ссз398485 0.2 1016951
11 мая, вт
вт1123:000сз149694 1.5 1017235
02:00−1сз2298100 2.8 101758
05:00+1сз3987100 0.3 1016938
08:00+2сз298699 0.8 1017784
11:00+5сз3866100 0.2 10161054
14:00+7сз47595 0.2 10161223
17:00+7сз36562 0.0 10161024
20:00+3зсз22794 0.0 101728
12 мая, ср
ср1223:00−1зсз22890 0.0 101923
02:00−1зсз22830 0.0 101819
05:00−2зсз21822 0.0 101813
08:00+6юз11535 0.0 1014274
11:00+13юв033433 0.0 10091664
14:00+13всв243484 0.2 10072348
17:00+11ссз2237100 0.3 10071643
20:00+6ссз2478100 0.4 1009145
13 мая, чт
чт1323:00+4ссз2373100 0.0 101074
02:00+4ссз3574100 0.0 1010133
05:00+2ссз2576100 0.0 1012179
08:00+2с3875100 0.0 1014551
11:00+5с61059100 0.1 10141371
14:00+7ссз610415 0.1 10141745
17:00+7ссз610381 0.0 10141573
20:00+5зсз384691 0.0 1016673